Weather History for Gary, IN

Change the Weather History Date:

Thursday, April 24, 2014

  Actual Average Record
Temperature  
Mean Temperature 53 °F -  
Max Temperature 64 °F 58 °F 85 °F (1960)
Min Temperature 42 °F 38 °F 30 °F (1956)
Degree Days  
Heating Degree Days 12    
Growing Degree Days 3 (Base 50)    
Moisture  
Dew Point 32 °F    
Average Humidity 50    
Maximum Humidity 83    
Minimum Humidity 24    
Precipitation  
Precipitation 0.01 in - - ()
Sea Level Pressure  
Sea Level Pressure 29.90 in    
Wind  
Wind Speed 8 mph (ESE)    
Max Wind Speed 24 mph    
Max Gust Speed 36 mph    
Visibility 10 miles    
Events Rain    
Averages and records for this station are not official NWS values.
T = Trace of Precipitation, MM = Missing Value Source: NWS Daily Summary

Daily Weather History Graph

Daily Weather History Graph

Search for Another Location

Airport:

Trip Planner

Search our weather history database for the weather conditions in past years. The results will help you decide how hot, cold, wet, or windy it might be!

Date:

Astronomy

Apr. 24, 2014 Rise Set
Actual Time 5:56 AM CDT 7:40 PM CDT
Civil Twilight 5:26 AM CDT 8:09 PM CDT
Nautical Twilight 4:50 AM CDT 8:45 PM CDT
Astronomical Twilight 4:12 AM CDT 9:24 PM CDT
Moon 3:11 AM CDT (4/24) 2:51 PM CDT (4/24)
Length of Visible Light 14h 43m
Length of Day
13h 44m
Waning Crescent, 24% of the Moon is Illuminated
Apr 24
Waning Crescent
Apr 29
New
May 6
First Quarter
May 14
Full
May 21
Last Quarter

Hourly Weather History & Observations

Time (CDT) Temp. Windchill Dew Point Humidity Pressure Visibility Wind Dir Wind Speed Gust Speed Precip Events Conditions
12:15 AM 43.9 °F 40.5 °F 32.0 °F 63% 30.03 in 10.0 mi East 5.8 mph - N/A Rain Light Rain
12:40 AM 44.4 °F - 32.2 °F 62% 30.04 in 10.0 mi Calm Calm - N/A   Light Drizzle
12:55 AM 44.6 °F - 32.9 °F 64% 30.05 in 10.0 mi Calm Calm - N/A Rain Light Rain
1:15 AM 44.1 °F 42.5 °F 34.9 °F 70% 30.07 in 10.0 mi WNW 3.5 mph - N/A Rain Light Rain
1:35 AM 43.9 °F 41.3 °F 36.9 °F 76% 30.06 in 10.0 mi North 4.6 mph - 0.01 in Rain Rain
1:55 AM 43.9 °F 40.5 °F 37.6 °F 78% 30.07 in 10.0 mi North 5.8 mph - 0.01 in   Light Drizzle
2:15 AM 43.3 °F 39.9 °F 38.3 °F 82% 30.07 in 10.0 mi North 5.8 mph - N/A Rain Light Rain
2:35 AM 43.0 °F 39.5 °F 37.9 °F 82% 30.08 in 10.0 mi North 5.8 mph - N/A Rain Light Rain
2:55 AM 42.4 °F 40.7 °F 37.6 °F 83% 30.07 in 10.0 mi NNE 3.5 mph - N/A   Mostly Cloudy
3:15 AM 42.8 °F 41.1 °F 37.0 °F 80% 30.07 in 10.0 mi NE 3.5 mph - N/A   Overcast
3:35 AM 42.8 °F 37.5 °F 37.2 °F 81% 30.08 in 10.0 mi North 9.2 mph - N/A   Overcast
3:55 AM 43.0 °F 39.5 °F 36.5 °F 78% 30.07 in 10.0 mi NNE 5.8 mph - N/A   Overcast
4:15 AM 42.8 °F 40.1 °F 36.5 °F 78% 30.07 in 10.0 mi ENE 4.6 mph - N/A   Scattered Clouds
4:45 AM 42.8 °F 36.6 °F 35.6 °F 76% 30.07 in 10.0 mi NNE 11.5 mph - N/A   Overcast
5:45 AM 42.8 °F 37.5 °F 37.4 °F 81% 30.06 in 10.0 mi NE 9.2 mph - N/A   Overcast
6:45 AM 44.6 °F 38.1 °F 39.2 °F 81% 30.04 in 10.0 mi East 13.8 mph - N/A   Overcast
7:45 AM 50.0 °F - 37.4 °F 62% 30.02 in 10.0 mi ESE 13.8 mph - N/A   Overcast
8:45 AM 53.6 °F - 35.6 °F 51% 30.01 in 10.0 mi SE 11.5 mph 23.0 mph N/A   Overcast
9:45 AM 55.4 °F - 35.6 °F 47% 29.98 in 10.0 mi SSE 13.8 mph 27.6 mph N/A   Overcast
10:45 AM 59.0 °F - 33.8 °F 39% 29.95 in 10.0 mi SSE 20.7 mph 35.7 mph N/A   Overcast
11:45 AM 60.8 °F - 32.0 °F 34% 29.93 in 10.0 mi SSE 17.3 mph 35.7 mph N/A   Overcast
12:45 PM 60.8 °F - 30.2 °F 31% 29.91 in 10.0 mi SE 19.6 mph 32.2 mph N/A   Overcast
1:45 PM 62.6 °F - 30.2 °F 30% 29.87 in 10.0 mi SSE 17.3 mph 31.1 mph N/A   Overcast
3:45 PM 64.4 °F - 26.6 °F 24% 29.83 in 12.0 mi SSE 17.3 mph 32.2 mph N/A   Overcast
4:45 PM 62.6 °F - 26.6 °F 26% 29.76 in 12.0 mi SE 17.3 mph 33.4 mph N/A   Overcast
5:45 PM 62.6 °F - 24.8 °F 24% 29.74 in 12.0 mi SE 24.2 mph 35.7 mph N/A   Overcast
6:45 PM 62.6 °F - 26.6 °F 26% 29.74 in 12.0 mi SE 12.7 mph 24.2 mph N/A   Overcast
7:45 PM 60.8 °F - 24.8 °F 25% 29.73 in 12.0 mi SE 173.8 mph 29.9 mph N/A   Overcast
8:45 PM 60.8 °F - 26.6 °F 27% 29.74 in 12.0 mi SE 11.5 mph - N/A   Overcast
9:15 PM 58.8 °F - 28.6 °F 32% 29.73 in 10.0 mi SE 6.9 mph - N/A   Light Drizzle
9:35 PM 59.2 °F - 27.7 °F 30% 29.72 in 10.0 mi ESE 9.2 mph 16.1 mph N/A   Overcast
9:45 PM 59.0 °F - 26.6 °F 29% 29.71 in 12.0 mi SE 13.8 mph - N/A   Overcast
9:55 PM 59.7 °F - 26.4 °F 28% 29.70 in 10.0 mi SE 13.8 mph 18.4 mph N/A   Overcast
10:15 PM 59.7 °F - 26.1 °F 28% 29.69 in 10.0 mi ESE 16.1 mph 19.6 mph N/A   Overcast
10:35 PM 59.5 °F - 26.4 °F 28% 29.68 in 10.0 mi SE 15.0 mph 19.6 mph N/A   Overcast
10:55 PM 59.4 °F - 26.8 °F 29% 29.68 in 10.0 mi SE 13.8 mph 23.0 mph N/A   Overcast
11:15 PM 59.0 °F - 27.5 °F 30% 29.67 in 10.0 mi SE 13.8 mph 21.9 mph N/A   Overcast
11:35 PM 58.5 °F - 28.9 °F 33% 29.66 in 10.0 mi ESE 11.5 mph 17.3 mph N/A   Overcast
11:55 PM 58.3 °F - 29.3 °F 33% 29.65 in 10.0 mi SE 13.8 mph 23.0 mph N/A   Overcast